Date,TemperatureHighF,TemperatureAvgF,TemperatureLowF,DewpointHighF,DewpointAvgF,DewpointLowF,HumidityHigh,HumidityAvg,HumidityLow,PressureMaxIn,PressureMinIn,WindSpeedMaxMPH,WindSpeedAvgMPH,GustSpeedMaxMPH,PrecipitationSumIn
2013-1-1,44.0,37.9,34.0,28.0,18.2,8.0,77,47,28,0.00,40.00,19,10,34,0.00
2013-1-2,49.0,42.3,37.0,10.0,6.5,1.0,32,23,16,0.00,40.00,20,14,38,0.00
2013-1-3,51.0,45.4,41.0,10.0,3.8,-3.0,25,18,14,0.00,40.00,20,13,34,0.00
2013-1-4,55.0,44.8,38.0,11.0,2.8,-3.0,27,17,12,0.00,40.00,13,7,22,0.00
2013-1-5,58.0,46.8,38.0,22.0,7.5,-4.0,44,21,11,0.00,40.00,6,3,11,0.00
2013-1-6,43.0,38.0,33.0,39.0,28.0,8.0,100,73,25,0.00,40.00,6,2,14,0.00
2013-1-7,48.0,40.7,34.0,35.0,27.1,13.0,100,64,25,0.00,40.00,17,6,27,0.00
2013-1-8,64.0,52.3,42.0,28.0,18.9,7.0,46,27,17,0.00,40.00,11,5,20,0.00
2013-1-9,64.0,54.7,46.0,42.0,28.9,22.0,75,39,24,0.00,40.00,13,4,21,0.00
2013-1-10,48.0,37.0,31.0,41.0,33.8,23.0,100,91,40,0.00,40.00,8,4,18,0.00
2013-1-11,38.0,31.2,26.0,28.0,21.3,13.0,93,69,39,0.00,40.00,6,2,17,0.00
2013-1-12,42.0,31.6,24.0,29.0,19.3,3.0,100,65,22,0.00,40.00,7,3,13,0.00
2013-1-13,42.0,32.7,27.0,25.0,17.1,9.0,80,54,30,0.00,40.00,9,4,15,0.00
2013-1-14,38.0,30.5,25.0,14.0,-0.5,-9.0,53,28,14,0.00,40.00,18,8,26,0.00
2013-1-15,44.0,37.5,29.0,13.0,6.2,-6.0,32,27,20,0.00,40.00,23,14,36,0.00
2013-1-16,53.0,47.1,42.0,18.0,15.5,13.0,34,28,24,0.00,40.00,28,17,40,0.00
2013-1-17,56.0,51.3,49.0,15.0,12.2,9.0,24,20,16,0.00,40.00,20,16,38,0.00
2013-1-18,61.0,53.1,49.0,16.0,13.4,11.0,23,20,17,0.00,40.00,17,11,26,0.00
2013-1-19,61.0,54.0,50.0,13.0,10.5,6.0,22,17,14,0.00,40.00,13,9,23,0.00
2013-1-20,61.0,54.5,49.0,10.0,5.8,1.0,18,14,11,0.00,40.00,13,8,22,0.00
2013-1-21,66.0,56.7,51.0,6.0,1.5,-3.0,13,10,8,0.00,40.00,13,9,22,0.00
2013-1-22,72.0,59.2,51.0,23.0,6.8,-2.0,28,13,7,0.00,40.00,10,5,18,0.00
2013-1-23,67.0,60.4,55.0,36.0,28.7,23.0,43,30,23,0.00,40.00,15,6,25,0.00
2013-1-24,58.0,53.3,49.0,53.0,44.0,31.0,96,73,41,0.00,40.00,14,5,23,0.00
2013-1-25,56.0,51.8,48.0,51.0,48.2,44.0,98,88,71,0.00,40.00,7,3,14,0.00
2013-1-26,52.0,48.6,46.0,52.0,48.4,46.0,99,99,91,0.00,40.00,6,2,11,0.00
2013-1-27,46.0,41.1,34.0,46.0,41.1,34.0,100,100,99,0.00,40.00,10,5,18,0.00
2013-1-28,41.0,35.5,32.0,38.0,32.8,26.0,100,91,56,0.00,40.00,6,3,14,0.00
2013-1-29,49.0,39.3,32.0,39.0,33.3,27.0,100,80,51,0.00,40.00,10,3,16,0.00
2013-1-30,58.0,50.2,45.0,40.0,29.7,24.0,76,46,31,0.00,40.00,20,10,36,0.00
2013-1-31,59.0,54.5,51.0,29.0,27.3,25.0,40,35,30,0.00,40.00,15,10,25,0.00
2013-2-1,67.0,56.3,48.0,35.0,24.9,18.0,45,30,18,0.00,40.00,7,4,12,0.00
2013-2-2,69.0,58.3,52.0,34.0,24.7,18.0,45,28,18,0.00,40.00,8,4,14,0.00
2013-2-3,60.0,53.3,48.0,44.0,38.4,31.0,78,58,40,0.00,40.00,6,3,12,0.00
2013-2-4,62.0,52.5,46.0,46.0,36.8,27.0,82,57,27,0.00,40.00,7,3,14,0.00
2013-2-5,61.0,51.1,43.0,45.0,32.4,24.0,98,51,29,0.00,40.00,7,4,12,0.00
2013-2-6,54.0,46.7,37.0,41.0,34.3,25.0,100,64,41,0.00,40.00,7,3,14,0.00
2013-2-7,60.0,48.2,37.0,45.0,33.5,19.0,100,62,21,0.00,40.00,7,2,14,0.00
2013-2-8,37.0,33.6,31.0,37.0,33.6,30.0,100,100,100,0.00,40.00,8,3,19,0.00
2013-2-9,37.0,32.6,29.0,37.0,32.5,29.0,100,100,97,0.00,40.00,6,2,14,0.00
2013-2-10,38.0,34.1,31.0,35.0,32.4,29.0,100,94,73,0.00,40.00,5,2,13,0.00
2013-2-11,43.0,35.3,29.0,34.0,25.4,4.0,100,71,28,0.00,40.00,9,3,15,0.00
2013-2-12,48.0,39.5,30.0,24.0,11.2,4.0,53,32,21,0.00,40.00,9,4,14,0.00
2013-2-13,57.0,47.2,39.0,33.0,18.8,8.0,61,33,21,0.00,40.00,11,6,18,0.00
2013-2-14,59.0,52.4,43.0,23.0,20.6,17.0,40,29,23,0.00,40.00,16,8,30,0.00
2013-2-15,59.0,54.6,51.0,19.0,11.5,2.0,26,18,11,0.00,40.00,22,13,38,0.00
2013-2-16,65.0,57.0,50.0,19.0,8.9,2.0,26,15,8,0.00,40.00,22,10,35,0.00
2013-2-17,60.0,50.2,43.0,39.0,19.3,6.0,73,32,15,0.00,40.00,7,2,14,0.00
2013-2-18,59.0,46.9,35.0,41.0,26.9,11.0,99,52,19,0.00,40.00,7,2,13,0.00
2013-2-19,38.0,34.9,32.0,37.0,34.6,30.0,100,99,73,0.00,40.00,9,4,20,0.00
2013-2-20,36.0,32.2,29.0,34.0,31.0,24.0,100,95,70,0.00,40.00,8,3,22,0.00
2013-2-21,40.0,33.5,27.0,36.0,31.2,23.0,100,91,72,0.00,40.00,7,3,11,0.00
2013-2-22,50.0,40.8,30.0,31.0,21.7,12.0,74,49,26,0.00,40.00,6,4,12,0.00
2013-2-23,54.0,44.1,35.0,33.0,24.7,18.0,66,47,28,0.00,40.00,6,3,13,0.00
2013-2-24,46.0,41.0,36.0,27.0,6.7,-4.0,67,28,13,0.00,40.00,21,10,40,0.00
2013-2-25,56.0,44.4,34.0,19.0,8.4,-3.0,44,24,12,0.00,40.00,10,4,16,0.00
2013-2-26,56.0,47.6,37.0,14.0,8.2,-7.0,36,20,10,0.00,40.00,14,9,24,0.00
2013-2-27,54.0,47.6,42.0,10.0,5.6,0.0,24,18,13,0.00,40.00,18,12,29,0.00
2013-2-28,59.0,52.8,47.0,8.0,3.6,0.0,16,13,12,0.00,40.00,22,15,38,0.00
2013-3-1,64.0,58.6,54.0,16.0,11.8,6.0,19,16,13,0.00,40.00,21,14,34,0.00
2013-3-2,74.0,61.7,52.0,27.0,19.8,13.0,31,21,10,0.00,40.00,11,4,15,0.00
2013-3-3,66.0,54.8,44.0,35.0,21.6,11.0,59,30,15,0.00,40.00,6,2,15,0.00
2013-3-4,56.0,48.8,39.0,45.0,39.3,28.0,100,71,39,0.00,40.00,6,3,16,0.00
2013-3-5,61.0,51.9,42.0,47.0,37.0,27.0,100,60,35,0.00,40.00,10,3,18,0.00
2013-3-6,54.0,43.0,38.0,42.0,39.1,37.0,100,88,58,0.00,40.00,6,2,11,0.00
2013-3-7,46.0,41.5,37.0,44.0,38.6,33.0,99,90,67,0.00,40.00,4,2,14,0.00
2013-3-8,40.0,34.7,31.0,40.0,34.7,31.0,100,100,95,0.00,40.00,10,4,19,0.00
2013-3-9,41.0,36.7,33.0,41.0,36.7,33.0,100,100,98,0.00,40.00,6,3,17,0.00
2013-3-10,58.0,47.6,35.0,41.0,28.8,16.0,99,52,21,0.00,40.00,12,5,20,0.00
2013-3-11,67.0,55.9,44.0,33.0,21.5,10.0,52,27,16,0.00,40.00,12,6,17,0.00
2013-3-12,69.0,61.4,51.0,26.0,19.4,11.0,37,20,15,0.00,40.00,15,9,28,0.00
2013-3-13,76.0,66.6,60.0,37.0,23.9,19.0,33,20,12,0.00,40.00,13,8,22,0.00
2013-3-14,80.0,68.5,59.0,44.0,27.7,20.0,37,23,13,0.00,40.00,11,5,21,0.00
2013-3-15,78.0,66.1,56.0,43.0,32.5,14.0,50,29,16,0.00,40.00,5,3,11,0.00
2013-3-16,71.0,60.3,51.0,46.0,26.0,8.0,67,30,12,0.00,40.00,5,2,11,0.00
2013-3-17,68.0,57.7,50.0,49.0,36.1,24.0,88,47,26,0.00,40.00,6,3,12,0.00
2013-3-18,64.0,55.0,48.0,47.0,37.5,18.0,89,54,21,0.00,40.00,5,2,12,0.00
2013-3-19,66.0,55.9,46.0,46.0,34.2,22.0,81,46,27,0.00,40.00,6,3,13,0.00
2013-3-20,68.0,57.4,49.0,46.0,35.7,29.0,65,45,30,0.00,40.00,6,3,14,0.00
2013-3-21,62.0,52.6,44.0,49.0,40.3,32.0,94,64,40,0.00,40.00,8,3,13,0.00
2013-3-22,63.0,50.3,39.0,49.0,43.5,31.0,100,79,50,0.00,40.00,6,3,11,0.00
2013-3-23,67.0,56.4,46.0,48.0,26.1,4.0,76,36,13,0.00,40.00,12,4,19,0.00
2013-3-24,67.0,57.5,48.0,45.0,35.8,19.0,66,46,19,0.00,40.00,6,3,13,0.00
2013-3-25,73.0,60.4,52.0,47.0,34.6,25.0,68,40,21,0.00,40.00,5,2,13,0.00
2013-3-26,66.0,56.9,49.0,41.0,29.3,7.0,61,36,15,0.00,40.00,6,2,13,0.00
2013-3-27,63.0,54.0,48.0,42.0,28.7,15.0,77,40,23,0.00,40.00,5,2,12,0.00
2013-3-28,67.0,56.6,47.0,43.0,37.0,27.0,68,50,27,0.00,40.00,6,3,13,0.00
2013-3-29,70.0,58.7,49.0,51.0,40.3,31.0,94,53,26,0.00,40.00,8,3,16,0.00
2013-3-30,66.0,57.7,51.0,50.0,40.7,-99.9,90,57,29,0.00,40.00,8,3,16,0.00
2013-3-31,60.0,51.4,44.0,48.0,41.7,28.0,94,71,40,0.00,40.00,7,2,15,0.00
2013-4-1,56.0,46.5,41.0,44.0,41.5,38.0,99,84,55,0.00,40.00,7,3,17,0.00
2013-4-2,61.0,50.0,43.0,49.0,44.3,39.0,100,82,59,0.00,40.00,8,4,13,0.00
2013-4-3,75.0,60.9,49.0,51.0,35.7,26.0,78,41,19,0.00,40.00,8,4,12,0.00
2013-4-4,68.0,60.1,52.0,45.0,34.8,25.0,70,40,23,0.00,40.00,5,3,13,0.00
2013-4-5,62.0,52.3,46.0,49.0,45.7,40.0,98,80,46,0.00,40.00,5,3,12,0.00
2013-4-6,62.0,51.6,41.0,50.0,45.2,40.0,99,80,51,0.00,40.00,5,3,12,0.00
2013-4-7,63.0,54.9,47.0,50.0,46.1,38.0,98,73,54,0.00,40.00,6,2,12,0.00
2013-4-8,48.0,41.8,36.0,47.0,41.5,36.0,100,99,92,0.00,40.00,10,4,20,0.00
2013-4-9,56.0,45.1,36.0,42.0,34.2,27.0,100,70,32,0.00,40.00,9,4,18,0.00
2013-4-10,65.0,53.7,41.0,28.0,20.1,11.0,58,28,12,0.00,40.00,18,6,28,0.00
2013-4-11,68.0,58.2,50.0,46.0,28.1,9.0,75,35,15,0.00,40.00,6,3,14,0.00
2013-4-12,72.0,59.8,49.0,49.0,34.5,21.0,68,40,15,0.00,40.00,10,4,17,0.00
2013-4-13,69.0,60.3,50.0,49.0,37.6,25.0,87,46,25,0.00,40.00,6,3,13,0.00
2013-4-14,56.0,49.6,43.0,46.0,37.5,16.0,99,67,24,0.00,40.00,7,4,13,0.00
2013-4-15,47.0,43.2,40.0,47.0,43.2,40.0,100,100,99,0.00,40.00,7,3,13,0.00
2013-4-16,46.0,39.1,34.0,40.0,36.3,31.0,100,90,64,0.00,40.00,6,3,17,0.00
2013-4-17,58.0,45.4,35.0,37.0,25.8,6.0,100,54,21,0.00,40.00,12,4,20,0.00
2013-4-18,61.0,50.9,40.0,16.0,8.9,1.0,27,18,12,0.00,40.00,18,10,30,0.00
2013-4-19,72.0,59.4,48.0,18.0,7.6,1.0,19,13,8,0.00,40.00,16,9,27,0.00
2013-4-20,77.0,64.1,52.0,33.0,20.2,6.0,34,19,11,0.00,40.00,10,3,18,0.00
2013-4-21,76.0,66.9,57.0,38.0,30.0,20.0,39,26,17,0.00,40.00,6,3,12,0.00
2013-4-22,71.0,61.2,52.0,47.0,32.0,15.0,80,37,14,0.00,40.00,5,2,12,0.00
2013-4-23,74.0,61.7,50.0,48.0,33.9,20.0,64,36,19,0.00,40.00,8,3,13,0.00
2013-4-24,67.0,53.0,44.0,49.0,42.1,20.0,100,75,21,0.00,40.00,8,3,14,0.00
2013-4-25,59.0,48.1,42.0,46.0,43.6,42.0,100,86,56,0.00,40.00,7,3,12,0.00
2013-4-26,72.0,59.3,43.0,46.0,39.8,18.0,93,53,20,0.00,40.00,6,4,12,0.00
2013-4-27,78.0,66.9,55.0,48.0,29.1,15.0,57,26,14,0.00,40.00,9,5,15,0.00
2013-4-28,81.0,70.5,60.0,46.0,28.8,18.0,51,23,12,0.00,40.00,8,4,16,0.00
2013-4-29,77.0,69.5,60.0,44.0,31.3,16.0,49,25,14,0.00,40.00,5,2,12,0.00
2013-4-30,69.0,61.9,51.0,50.0,39.7,-4.0,93,50,7,0.00,40.00,9,3,13,0.00
2013-5-1,76.0,64.6,47.0,46.0,27.7,4.0,84,33,9,0.00,40.00,14,7,24,0.00
2013-5-2,72.0,66.3,59.0,7.0,0.9,-4.0,10,7,6,0.00,40.00,20,13,31,0.00
2013-5-3,79.0,68.2,59.0,27.0,10.1,-4.0,23,11,6,0.00,40.00,13,7,23,0.00
2013-5-4,73.0,61.6,48.0,48.0,23.6,5.0,69,28,10,0.00,40.00,6,3,15,0.00
2013-5-5,57.0,49.0,45.0,48.0,40.3,28.0,99,74,45,0.00,40.00,9,5,15,0.00
2013-5-6,49.0,46.6,45.0,49.0,46.6,45.0,100,100,99,0.00,40.00,10,5,19,0.00
2013-5-7,50.0,46.1,43.0,49.0,44.9,39.0,100,96,78,0.00,40.00,7,2,18,0.00
2013-5-8,55.0,46.7,41.0,48.0,43.7,36.0,100,90,69,0.00,40.00,8,2,14,0.00
2013-5-9,58.0,50.1,43.0,50.0,46.7,43.0,100,89,71,0.00,40.00,10,3,13,0.00
2013-5-10,72.0,60.1,47.0,52.0,43.8,-99.9,100,61,26,0.00,40.00,10,5,16,0.00
2013-5-11,80.0,69.2,58.0,46.0,35.4,-99.9,53,32,14,0.00,40.00,16,7,27,0.00
2013-5-12,84.0,74.6,64.0,35.0,29.8,24.0,32,20,12,0.00,40.00,11,6,25,0.00
2013-5-13,88.0,76.7,65.0,41.0,33.0,28.0,32,21,13,0.00,40.00,7,4,17,0.00
2013-5-14,83.0,70.8,59.0,45.0,32.4,15.0,48,26,10,0.00,40.00,6,3,14,0.00
2013-5-15,73.0,63.5,54.0,48.0,33.2,18.0,67,34,20,0.00,40.00,7,3,13,0.00
2013-5-16,71.0,57.5,53.0,50.0,25.0,-99.9,86,49,30,0.00,40.00,6,4,13,0.00
2013-5-17,64.0,54.7,48.0,51.0,42.6,-99.9,97,72,54,0.00,40.00,6,3,14,0.00
2013-5-18,67.0,55.2,47.0,51.0,47.0,43.0,98,77,47,0.00,40.00,6,2,14,0.00
2013-5-19,72.0,61.9,49.0,52.0,47.2,33.0,83,61,28,0.00,40.00,6,3,13,0.00
2013-5-20,80.0,68.8,55.0,51.0,37.5,23.0,74,36,14,0.00,40.00,13,6,21,0.00
2013-5-21,79.0,69.5,60.0,51.0,39.6,27.0,70,36,16,0.00,40.00,6,3,13,0.00
2013-5-22,72.0,62.2,48.0,49.0,35.9,18.0,85,41,17,0.00,40.00,7,4,16,0.00
2013-5-23,66.0,54.4,46.0,48.0,36.4,13.0,95,54,17,0.00,40.00,7,3,14,0.00
2013-5-24,67.0,57.4,45.0,45.0,32.0,4.0,68,41,11,0.00,40.00,7,3,12,0.00
2013-5-25,67.0,57.7,50.0,48.0,27.0,-9.0,84,38,7,0.00,40.00,7,3,13,0.00
2013-5-26,67.0,57.2,48.0,46.0,33.9,12.0,73,43,19,0.00,40.00,5,2,13,0.00
2013-5-27,70.0,58.4,49.0,50.0,40.8,26.0,87,54,32,0.00,40.00,6,3,14,0.00
2013-5-28,67.0,57.8,49.0,53.0,46.7,40.0,98,68,48,0.00,40.00,6,3,13,0.00
2013-5-29,77.0,64.7,51.0,53.0,45.5,34.0,87,52,30,0.00,40.00,6,3,13,0.00
2013-5-30,77.0,68.4,60.0,51.0,44.9,36.0,65,44,31,0.00,40.00,6,2,12,0.00
2013-5-31,81.0,71.4,60.0,52.0,41.3,24.0,61,35,15,0.00,40.00,5,2,13,0.00
2013-6-1,90.0,79.0,69.0,54.0,39.0,21.0,46,27,9,0.00,40.00,13,5,24,0.00
2013-6-2,81.0,73.2,63.0,54.0,37.8,24.0,65,29,17,0.00,40.00,6,2,12,0.00
2013-6-3,76.0,67.4,59.0,52.0,39.5,24.0,71,38,22,0.00,40.00,8,3,13,0.00
2013-6-4,75.0,65.7,58.0,51.0,35.1,8.0,73,36,11,0.00,40.00,8,3,13,0.00
2013-6-5,78.0,67.9,57.0,53.0,33.1,8.0,70,32,11,0.00,40.00,7,3,14,0.00
2013-6-6,79.0,67.7,55.0,54.0,39.8,23.0,73,39,15,0.00,40.00,6,4,15,0.00
2013-6-7,83.0,72.4,60.0,54.0,42.8,15.0,54,36,13,0.00,40.00,6,4,15,0.00
2013-6-8,84.0,75.9,67.0,52.0,40.1,23.0,48,29,13,0.00,40.00,6,3,12,0.00
2013-6-9,82.0,74.0,67.0,49.0,27.3,4.0,40,20,7,0.00,40.00,7,3,13,0.00
2013-6-10,78.0,71.6,63.0,50.0,35.2,13.0,61,30,11,0.00,40.00,11,5,21,0.00
2013-6-11,88.0,75.8,65.0,53.0,31.4,14.0,51,23,8,0.00,40.00,6,2,13,0.00
2013-6-12,80.0,72.0,63.0,54.0,43.3,32.0,62,37,22,0.00,40.00,6,2,11,0.00
2013-6-13,81.0,72.3,61.0,51.0,34.4,4.0,61,29,9,0.00,40.00,6,3,13,0.00
2013-6-14,80.0,71.9,62.0,49.0,36.4,8.0,61,31,8,0.00,40.00,6,3,12,0.00
2013-6-15,77.0,69.2,60.0,48.0,28.2,-10.0,57,26,5,0.00,40.00,6,3,11,0.00
2013-6-16,80.0,71.1,61.0,49.0,30.9,-20.0,61,28,3,0.00,40.00,7,4,19,0.00
2013-6-17,81.0,70.4,58.0,47.0,37.2,23.0,52,32,12,0.00,40.00,5,3,18,0.00
2013-6-18,80.0,70.1,61.0,51.0,38.6,16.0,64,35,15,0.00,40.00,5,3,15,0.00
2013-6-19,78.0,68.6,58.0,49.0,33.4,9.0,60,30,9,0.00,40.00,5,3,15,0.00
2013-6-20,79.0,68.0,59.0,46.0,27.7,21.0,54,23,13,0.00,40.00,6,3,13,0.00
2013-6-21,78.0,73.2,68.0,44.0,41.0,39.0,36,32,25,0.00,40.00,3,2,11,0.00
2013-6-22,79.0,71.1,62.0,48.0,41.1,25.0,59,36,17,0.00,40.00,5,3,13,0.00
2013-6-23,73.0,65.9,57.0,51.0,42.3,27.0,76,44,24,0.00,40.00,6,3,12,0.00
2013-6-24,72.0,61.9,55.0,53.0,43.1,30.0,90,53,26,0.00,40.00,7,4,16,0.00
2013-6-25,77.0,65.5,55.0,56.0,50.5,40.0,81,61,32,0.00,40.00,6,3,14,0.00
2013-6-26,86.0,75.3,60.0,55.0,51.2,47.0,70,45,30,0.00,40.00,7,4,13,0.00
2013-6-27,90.0,77.6,69.0,52.0,49.5,46.0,53,39,24,0.00,40.00,6,3,13,0.00
2013-6-28,93.0,80.5,68.0,49.0,42.6,30.0,46,27,14,0.00,40.00,7,4,18,0.00
2013-6-29,97.0,87.0,76.0,50.0,37.9,25.0,33,18,10,0.00,40.00,8,5,15,0.00
2013-6-30,98.0,87.4,78.0,53.0,42.7,30.0,39,22,12,0.00,40.00,6,3,12,0.00
2013-7-1,91.0,82.5,76.0,53.0,45.8,41.0,42,28,18,0.00,40.00,8,3,19,0.00
2013-7-2,91.0,81.3,74.0,57.0,42.8,36.0,41,26,16,0.00,40.00,7,4,13,0.00
2013-7-3,88.0,79.1,71.0,50.0,41.9,37.0,46,28,19,0.00,40.00,8,4,15,0.00
2013-7-4,89.0,80.9,72.0,52.0,40.3,27.0,46,25,15,0.00,40.00,7,4,13,0.00
2013-7-5,87.0,77.4,68.0,55.0,44.8,35.0,57,33,18,0.00,40.00,7,3,14,0.00
2013-7-6,85.0,74.7,69.0,58.0,50.7,45.0,65,44,26,0.00,40.00,6,3,13,0.00
2013-7-7,88.0,78.1,67.0,53.0,44.6,35.0,57,32,16,0.00,40.00,7,4,15,0.00
2013-7-8,96.0,80.5,69.0,47.0,36.8,24.0,46,23,9,0.00,40.00,8,4,13,0.00
2013-7-9,93.0,83.1,73.0,53.0,40.1,26.0,47,24,10,0.00,40.00,7,4,15,0.00
2013-7-10,82.0,72.0,67.0,56.0,47.4,-99.9,63,44,30,0.00,40.00,7,3,11,0.00
2013-7-11,73.0,68.8,64.0,60.0,55.4,47.0,79,63,46,0.00,40.00,6,3,10,0.00
2013-7-12,82.0,72.3,63.0,60.0,56.8,49.0,83,61,37,0.00,40.00,6,3,12,0.00
2013-7-13,85.0,75.1,64.0,57.0,49.9,41.0,73,43,22,0.00,40.00,7,4,14,0.00
2013-7-14,88.0,78.4,70.0,53.0,46.7,41.0,54,34,23,0.00,40.00,6,3,11,0.00
2013-7-15,86.0,76.1,69.0,47.0,43.3,38.0,44,32,18,0.00,40.00,6,3,15,0.00
2013-7-16,83.0,75.6,66.0,44.0,31.2,21.0,32,21,11,0.00,40.00,7,3,14,0.00
2013-7-17,88.0,77.7,66.0,39.0,24.2,2.0,32,16,5,0.00,40.00,8,3,11,0.00
2013-7-18,88.0,76.4,63.0,46.0,35.0,22.0,43,24,11,0.00,40.00,7,4,15,0.00
2013-7-19,89.0,77.2,68.0,52.0,31.7,18.0,43,20,10,0.00,40.00,6,3,11,0.00
2013-7-20,82.0,74.4,70.0,65.0,52.4,-99.9,75,49,14,0.00,40.00,10,4,19,0.00
2013-7-21,76.0,70.3,64.0,66.0,60.1,54.0,94,72,54,0.00,40.00,10,3,17,0.00
2013-7-22,77.0,69.8,64.0,65.0,60.8,58.0,88,74,57,0.00,40.00,6,3,14,0.00
2013-7-23,81.0,71.6,64.0,61.0,58.8,53.0,85,65,44,0.00,40.00,5,3,14,0.00
2013-7-24,85.0,72.7,63.0,58.0,55.1,53.0,75,56,34,0.00,40.00,6,4,16,0.00
2013-7-25,87.0,76.8,66.0,56.0,48.8,40.0,68,39,25,0.00,40.00,7,4,16,0.00
2013-7-26,84.0,75.7,71.0,54.0,50.4,46.0,53,42,28,0.00,40.00,5,2,12,0.00
2013-7-27,83.0,75.6,68.0,55.0,49.9,39.0,60,41,28,0.00,40.00,6,3,14,0.00
2013-7-28,82.0,73.7,65.0,48.0,39.4,29.0,51,30,16,0.00,40.00,5,2,13,0.00
2013-7-29,82.0,72.6,65.0,52.0,44.9,37.0,56,38,26,0.00,40.00,6,2,12,0.00
2013-7-30,80.0,72.2,63.0,54.0,48.1,39.0,59,44,29,0.00,40.00,5,3,13,0.00
2013-7-31,82.0,74.6,65.0,52.0,45.1,36.0,52,36,20,0.00,40.00,7,3,15,0.00
2013-8-1,79.0,73.0,65.0,51.0,27.7,-3.0,59,25,5,0.00,40.00,9,5,14,0.00
2013-8-2,82.0,73.9,64.0,50.0,39.9,-1.0,54,32,7,0.00,40.00,5,3,13,0.00
2013-8-3,81.0,72.1,63.0,51.0,39.0,10.0,56,33,12,0.00,40.00,6,2,11,0.00
2013-8-4,83.0,75.7,64.0,50.0,41.1,14.0,53,31,10,0.00,40.00,7,3,11,0.00
2013-8-5,87.0,76.4,64.0,49.0,36.5,7.0,53,28,6,0.00,40.00,6,3,11,0.00
2013-8-6,83.0,73.2,64.0,47.0,31.9,4.0,50,25,6,0.00,40.00,5,3,13,0.00
2013-8-7,80.0,73.1,64.0,44.0,30.3,3.0,47,23,8,0.00,40.00,6,3,12,0.00
2013-8-17,92.0,75.3,73.0,48.0,29.1,-99.9,36,23,20,0.00,40.00,5,4,14,0.00
2013-8-18,89.0,85.8,76.0,52.0,48.8,47.0,43,28,24,0.00,40.00,13,6,22,0.00
2013-8-19,83.0,46.5,73.0,53.0,-12.6,-99.9,49,28,23,0.00,40.00,4,2,11,0.00
2013-8-20,89.0,76.6,73.0,50.0,28.2,-99.9,45,21,6,0.00,40.00,5,3,13,0.00
2013-8-21,91.0,81.1,74.0,42.0,38.0,28.0,30,22,11,0.00,40.00,5,4,13,0.00
2013-8-22,91.0,82.2,73.0,43.0,38.8,31.0,30,22,16,0.00,40.00,8,4,14,0.00
2013-8-23,91.0,80.6,68.0,52.0,42.2,38.0,43,27,16,0.00,40.00,6,4,14,0.00
2013-9-25,71.0,64.4,47.0,46.0,38.2,32.0,96,41,25,0.00,40.00,7,5,15,0.00
2013-9-26,58.0,49.1,45.0,47.0,44.8,42.0,97,86,55,0.00,40.00,8,5,12,0.00
2013-9-27,68.0,57.2,47.0,42.0,23.2,12.0,79,33,11,0.00,40.00,10,7,17,0.00
2013-9-28,71.0,53.2,55.0,25.0,2.5,-99.9,23,16,10,0.00,40.00,11,7,15,0.00
2013-9-29,77.0,66.8,56.0,22.0,18.7,15.0,22,16,12,0.00,40.00,5,4,10,0.00
2013-9-30,78.0,70.3,58.0,30.0,22.3,7.0,31,18,7,0.00,40.00,5,4,10,0.00
2013-10-1,62.0,62.0,62.0,38.0,38.0,38.0,41,41,41,0.00,40.00,1,1,2,0.00
2013-11-13,77.0,69.8,65.0,29.0,23.5,20.0,26,18,13,0.00,40.00,11,8,18,0.00
2013-11-14,76.0,68.1,64.0,29.0,24.1,20.0,26,20,14,0.00,40.00,8,7,14,0.00
2013-11-15,56.0,49.4,45.0,47.0,42.6,29.0,99,81,36,0.00,40.00,5,4,14,0.00
2013-11-16,45.0,34.6,42.0,45.0,14.6,-99.9,100,80,99,0.00,40.00,5,2,9,0.00
2013-11-17,57.0,46.7,39.0,46.0,40.2,37.0,94,79,57,0.00,40.00,4,2,8,0.00
2013-11-18,58.0,48.4,45.0,47.0,42.8,40.0,99,81,64,0.00,40.00,7,4,9,0.00
2013-11-19,50.0,46.9,44.0,47.0,45.2,44.0,99,94,83,0.00,40.00,4,2,8,0.00
2013-12-9,38.0,33.8,30.0,26.0,5.2,-9.0,82,38,13,0.00,40.00,24,16,41,0.00
2013-12-10,49.0,42.2,35.0,-7.0,-9.9,-14.0,11,10,9,0.00,40.00,19,15,34,0.00
2013-12-11,55.0,50.8,46.0,5.0,0.4,-7.0,13,12,10,0.00,40.00,16,12,27,0.00
2013-12-12,55.0,48.7,42.0,21.0,11.1,0.0,43,23,13,0.00,40.00,9,4,16,0.00
2013-12-13,57.0,51.3,44.0,17.0,11.3,8.0,25,20,14,0.00,40.00,16,6,27,0.00
2013-12-14,53.0,47.0,49.0,12.0,1.7,-99.9,22,19,15,0.00,40.00,25,18,40,0.00
2013-12-15,61.0,58.7,52.0,14.0,8.6,6.0,17,13,12,0.00,40.00,23,17,40,0.00
2013-12-26,57.0,55.0,53.0,3.0,2.5,2.0,12,12,11,0.00,40.00,13,12,22,0.00
2013-12-27,61.0,58.0,55.0,4.0,1.5,-1.0,10,10,10,0.00,40.00,15,11,23,0.00
2013-12-28,55.0,41.2,55.0,12.0,-18.5,-99.9,18,12,14,0.00,40.00,4,3,7,0.00
2013-12-29,48.0,48.0,48.0,8.0,8.0,8.0,19,19,19,0.00,40.00,4,4,7,0.00
2013-12-30,53.0,50.5,48.0,-8.0,-8.5,-9.0,9,8,7,0.00,40.00,6,4,12,0.00
2013-12-31,58.0,56.5,55.0,15.0,13.0,11.0,20,18,15,0.00,40.00,3,3,5,0.00
2014-1-1,65.0,57.5,52.0,12.0,7.5,3.0,16,14,11,0.00,40.00,13,9,21,0.00